Time,TemperatureF,DewpointF,PressureIn,WindDirection,WindDirectionDegrees,WindSpeedMPH,WindSpeedGustMPH,Humidity,HourlyPrecipIn,Conditions,Clouds,dailyrainin,SoftwareType,DateUTC
2013-06-10 00:03:00,63.9,35.7,29.91,North,0,0.0,0.0,35,0.00,,SKC,0.00,VWS V13.00,2013-06-10 06:03:00,
2013-06-10 00:08:00,63.9,36.4,29.91,North,0,0.0,0.0,36,0.00,,SKC,0.00,VWS V13.00,2013-06-10 06:08:00,
2013-06-10 00:13:00,63.9,35.7,29.88,North,0,0.0,0.0,35,0.00,,SKC,0.00,VWS V13.00,2013-06-10 06:13:00,
2013-06-10 00:18:00,64.2,36.0,29.88,North,0,0.0,0.0,35,0.00,,SKC,0.00,VWS V13.00,2013-06-10 06:18:00,
2013-06-10 00:23:00,63.9,36.4,29.88,North,0,0.0,0.0,36,0.00,,SKC,0.00,VWS V13.00,2013-06-10 06:23:00,
2013-06-10 00:28:00,63.7,36.2,29.88,North,0,0.0,0.0,36,0.00,,SKC,0.00,VWS V13.00,2013-06-10 06:28:00,
2013-06-10 00:33:00,63.5,36.8,29.88,North,0,0.0,0.0,37,0.00,,SKC,0.00,VWS V13.00,2013-06-10 06:33:00,
2013-06-10 00:39:00,63.5,36.8,29.88,North,0,0.0,0.0,37,0.00,,SKC,0.00,VWS V13.00,2013-06-10 06:39:00,
2013-06-10 00:44:00,63.3,36.6,29.88,North,0,0.0,0.0,37,0.00,,SKC,0.00,VWS V13.00,2013-06-10 06:44:00,
2013-06-10 00:49:00,63.1,37.1,29.88,North,0,0.0,0.0,38,0.00,,SKC,0.00,VWS V13.00,2013-06-10 06:49:00,
2013-06-10 00:54:00,63.0,36.3,29.88,North,0,0.0,0.0,37,0.00,,SKC,0.00,VWS V13.00,2013-06-10 06:54:00,
2013-06-10 00:59:00,63.0,36.3,29.88,North,0,0.0,0.0,37,0.00,,SKC,0.00,VWS V13.00,2013-06-10 06:59:00,
2013-06-10 01:04:00,62.8,36.8,29.88,North,0,0.0,0.0,38,0.00,,SKC,0.00,VWS V13.00,2013-06-10 07:04:00,
2013-06-10 01:09:00,62.6,36.0,29.88,North,0,0.0,0.0,37,0.00,,SKC,0.00,VWS V13.00,2013-06-10 07:09:00,
2013-06-10 01:14:00,62.4,36.5,29.88,North,0,0.0,0.0,38,0.00,,SKC,0.00,VWS V13.00,2013-06-10 07:14:00,
2013-06-10 01:19:00,62.4,36.5,29.88,North,0,0.0,0.0,38,0.00,,SKC,0.00,VWS V13.00,2013-06-10 07:19:00,
2013-06-10 01:24:00,61.9,37.3,29.88,North,0,0.0,0.0,40,0.00,,SKC,0.00,VWS V13.00,2013-06-10 07:24:00,
2013-06-10 01:29:00,61.7,38.4,29.88,North,0,0.0,0.0,42,0.00,,SKC,0.00,VWS V13.00,2013-06-10 07:29:00,
2013-06-10 01:34:00,61.7,38.4,29.88,North,0,0.0,0.0,42,0.00,,SKC,0.00,VWS V13.00,2013-06-10 07:34:00,
2013-06-10 01:39:00,61.0,37.8,29.88,North,0,0.0,0.0,42,0.00,,SKC,0.00,VWS V13.00,2013-06-10 07:39:00,
2013-06-10 01:44:00,61.0,37.8,29.88,North,0,0.0,0.0,42,0.00,,SKC,0.00,VWS V13.00,2013-06-10 07:44:00,
2013-06-10 01:49:00,61.0,37.8,29.88,North,0,0.0,0.0,42,0.00,,SKC,0.00,VWS V13.00,2013-06-10 07:49:00,
2013-06-10 01:54:00,61.0,37.8,29.88,North,0,0.0,0.0,42,0.00,,SKC,0.00,VWS V13.00,2013-06-10 07:54:00,
2013-06-10 01:59:00,59.9,38.0,29.88,North,0,0.0,0.0,44,0.00,,SKC,0.00,VWS V13.00,2013-06-10 07:59:00,
2013-06-10 02:05:00,59.9,38.0,29.88,North,0,0.0,0.0,44,0.00,,SKC,0.00,VWS V13.00,2013-06-10 08:05:00,
2013-06-10 02:10:00,59.9,38.0,29.88,North,0,0.0,0.0,44,0.00,,SKC,0.00,VWS V13.00,2013-06-10 08:10:00,
2013-06-10 02:15:00,59.9,38.0,29.88,North,0,0.0,0.0,44,0.00,,SKC,0.00,VWS V13.00,2013-06-10 08:15:00,
2013-06-10 02:20:00,59.9,38.0,29.88,North,0,0.0,0.0,44,0.00,,SKC,0.00,VWS V13.00,2013-06-10 08:20:00,
2013-06-10 02:25:00,58.5,37.8,29.88,North,0,0.0,0.0,46,0.00,,SKC,0.00,VWS V13.00,2013-06-10 08:25:00,
2013-06-10 02:30:00,58.5,37.8,29.88,North,0,0.0,0.0,46,0.00,,SKC,0.00,VWS V13.00,2013-06-10 08:30:00,
2013-06-10 02:35:00,58.5,37.8,29.88,North,0,0.0,0.0,46,0.00,,SKC,0.00,VWS V13.00,2013-06-10 08:35:00,
2013-06-10 02:40:00,58.5,37.8,29.88,North,0,0.0,0.0,46,0.00,,SKC,0.00,VWS V13.00,2013-06-10 08:40:00,
2013-06-10 02:45:00,57.7,37.7,29.85,North,0,0.0,0.0,47,0.00,,SKC,0.00,VWS V13.00,2013-06-10 08:45:00,
2013-06-10 02:50:00,57.4,37.9,29.85,North,0,0.0,0.0,48,0.00,,SKC,0.00,VWS V13.00,2013-06-10 08:50:00,
2013-06-10 02:55:00,57.2,37.7,29.85,North,0,0.0,0.0,48,0.00,,SKC,0.00,VWS V13.00,2013-06-10 08:55:00,
2013-06-10 03:00:00,57.0,37.5,29.85,North,0,0.0,0.0,48,0.00,,SKC,0.00,VWS V13.00,2013-06-10 09:00:00,
2013-06-10 03:05:00,56.8,37.9,29.85,North,0,0.0,0.0,49,0.00,,SKC,0.00,VWS V13.00,2013-06-10 09:05:00,
2013-06-10 03:10:00,56.8,37.9,29.85,North,0,0.0,0.0,49,0.00,,SKC,0.00,VWS V13.00,2013-06-10 09:10:00,
2013-06-10 03:15:00,56.8,37.9,29.85,North,0,0.0,0.0,49,0.00,,SKC,0.00,VWS V13.00,2013-06-10 09:15:00,
2013-06-10 03:20:00,56.5,37.6,29.85,North,0,0.0,0.0,49,0.00,,SKC,0.00,VWS V13.00,2013-06-10 09:20:00,
2013-06-10 03:25:00,56.5,37.6,29.85,North,0,0.0,0.0,49,0.00,,SKC,0.00,VWS V13.00,2013-06-10 09:25:00,
2013-06-10 03:30:00,56.3,37.9,29.85,North,0,0.0,0.0,50,0.00,,SKC,0.00,VWS V13.00,2013-06-10 09:30:00,
2013-06-10 03:35:00,56.3,37.9,29.85,North,0,0.0,0.0,50,0.00,,SKC,0.00,VWS V13.00,2013-06-10 09:35:00,
2013-06-10 03:40:00,56.1,37.8,29.85,North,0,0.0,0.0,50,0.00,,SKC,0.00,VWS V13.00,2013-06-10 09:40:00,
2013-06-10 03:45:00,56.1,37.8,29.85,North,0,0.0,0.0,50,0.00,,SKC,0.00,VWS V13.00,2013-06-10 09:45:00,
2013-06-10 03:50:00,55.9,37.6,29.85,North,0,0.0,0.0,50,0.00,,SKC,0.00,VWS V13.00,2013-06-10 09:50:00,
2013-06-10 03:55:00,55.8,37.9,29.85,North,0,0.0,0.0,51,0.00,,SKC,0.00,VWS V13.00,2013-06-10 09:55:00,
2013-06-10 04:00:00,55.6,37.8,29.85,North,0,0.0,0.0,51,0.00,,SKC,0.00,VWS V13.00,2013-06-10 10:00:00,
2013-06-10 04:05:00,55.6,37.8,29.85,North,0,0.0,0.0,51,0.00,,SKC,0.00,VWS V13.00,2013-06-10 10:05:00,
2013-06-10 04:10:00,55.4,37.6,29.85,North,0,0.0,0.0,51,0.00,,SKC,0.00,VWS V13.00,2013-06-10 10:10:00,
2013-06-10 04:15:00,55.2,37.4,29.85,North,0,0.0,0.0,51,0.00,,SKC,0.00,VWS V13.00,2013-06-10 10:15:00,
2013-06-10 04:20:00,55.2,37.4,29.85,North,0,0.0,0.0,51,0.00,,SKC,0.00,VWS V13.00,2013-06-10 10:20:00,
2013-06-10 04:25:00,55.0,37.3,29.85,North,0,0.0,0.0,51,0.00,,SKC,0.00,VWS V13.00,2013-06-10 10:25:00,
2013-06-10 04:30:00,55.0,37.3,29.85,North,0,0.0,0.0,51,0.00,,SKC,0.00,VWS V13.00,2013-06-10 10:30:00,
2013-06-10 04:35:00,55.0,37.3,29.85,North,0,0.0,0.0,51,0.00,,SKC,0.00,VWS V13.00,2013-06-10 10:35:00,
2013-06-10 04:40:00,55.2,37.4,29.85,North,0,0.0,0.0,51,0.00,,SKC,0.00,VWS V13.00,2013-06-10 10:40:00,
2013-06-10 04:46:00,55.0,37.8,29.85,North,0,0.0,0.0,52,0.00,,SKC,0.00,VWS V13.00,2013-06-10 10:46:00,
2013-06-10 04:51:00,54.9,37.6,29.85,North,0,0.0,0.0,52,0.00,,SKC,0.00,VWS V13.00,2013-06-10 10:51:00,
2013-06-10 04:56:00,54.9,37.6,29.85,North,0,0.0,0.0,52,0.00,,SKC,0.00,VWS V13.00,2013-06-10 10:56:00,
2013-06-10 05:01:00,54.7,37.4,29.85,North,0,0.0,0.0,52,0.00,,SKC,0.00,VWS V13.00,2013-06-10 11:01:00,
2013-06-10 05:06:00,54.5,37.2,29.85,North,0,0.0,0.0,52,0.00,,SKC,0.00,VWS V13.00,2013-06-10 11:06:00,
2013-06-10 05:11:00,54.5,37.2,29.85,North,0,0.0,0.0,52,0.00,,SKC,0.00,VWS V13.00,2013-06-10 11:11:00,
2013-06-10 05:16:00,54.5,37.2,29.85,North,0,0.0,0.0,52,0.00,,SKC,0.00,VWS V13.00,2013-06-10 11:16:00,
2013-06-10 05:21:00,54.5,37.2,29.85,North,0,0.0,0.0,52,0.00,,SKC,0.00,VWS V13.00,2013-06-10 11:21:00,
2013-06-10 05:26:00,54.1,36.9,29.85,North,0,0.0,0.0,52,0.00,,SKC,0.00,VWS V13.00,2013-06-10 11:26:00,
2013-06-10 05:31:00,54.1,36.9,29.85,North,0,0.0,0.0,52,0.00,,SKC,0.00,VWS V13.00,2013-06-10 11:31:00,
2013-06-10 05:36:00,54.3,37.1,29.85,North,0,0.0,0.0,52,0.00,,SKC,0.00,VWS V13.00,2013-06-10 11:36:00,
2013-06-10 05:41:00,54.3,37.1,29.85,North,0,0.0,0.0,52,0.00,,SKC,0.00,VWS V13.00,2013-06-10 11:41:00,
2013-06-10 05:46:00,54.1,37.4,29.85,North,0,0.0,0.0,53,0.00,,SKC,0.00,VWS V13.00,2013-06-10 11:46:00,
2013-06-10 05:51:00,54.3,37.1,29.85,North,0,0.0,0.0,52,0.00,,SKC,0.00,VWS V13.00,2013-06-10 11:51:00,
2013-06-10 05:57:00,54.3,37.1,29.85,North,0,0.0,0.0,52,0.00,,SKC,0.00,VWS V13.00,2013-06-10 11:57:00,
2013-06-10 06:02:00,54.5,37.2,29.88,North,0,0.0,0.0,52,0.00,,SKC,0.00,VWS V13.00,2013-06-10 12:02:00,
2013-06-10 06:07:00,54.7,37.4,29.88,North,0,0.0,0.0,52,0.00,,SKC,0.00,VWS V13.00,2013-06-10 12:07:00,
2013-06-10 06:12:00,54.7,37.4,29.88,North,0,0.0,0.0,52,0.00,,SKC,0.00,VWS V13.00,2013-06-10 12:12:00,
2013-06-10 06:17:00,54.7,37.4,29.88,North,0,0.0,0.0,52,0.00,,SKC,0.00,VWS V13.00,2013-06-10 12:17:00,
2013-06-10 06:22:00,54.7,37.4,29.88,North,0,0.0,0.0,52,0.00,,SKC,0.00,VWS V13.00,2013-06-10 12:22:00,
2013-06-10 06:27:00,54.7,37.9,29.88,North,0,0.0,0.0,53,0.00,,SKC,0.00,VWS V13.00,2013-06-10 12:27:00,
2013-06-10 06:32:00,54.7,37.9,29.88,North,0,0.0,0.0,53,0.00,,SKC,0.00,VWS V13.00,2013-06-10 12:32:00,
2013-06-10 06:37:00,54.9,38.1,29.88,North,0,0.0,0.0,53,0.00,,SKC,0.00,VWS V13.00,2013-06-10 12:37:00,
2013-06-10 06:42:00,55.0,38.7,29.88,North,0,0.0,0.0,54,0.00,,SKC,0.00,VWS V13.00,2013-06-10 12:42:00,
2013-06-10 06:47:00,55.0,39.2,29.88,North,0,0.0,0.0,55,0.00,,SKC,0.00,VWS V13.00,2013-06-10 12:47:00,
2013-06-10 06:52:00,55.2,39.3,29.88,North,0,0.0,0.0,55,0.00,,SKC,0.00,VWS V13.00,2013-06-10 12:52:00,
2013-06-10 06:57:00,55.8,40.3,29.88,North,0,0.0,0.0,56,0.00,,SKC,0.00,VWS V13.00,2013-06-10 12:57:00,
2013-06-10 07:02:00,56.3,41.3,29.88,North,0,0.0,0.0,57,0.00,,SKC,0.00,VWS V13.00,2013-06-10 13:02:00,
2013-06-10 07:07:00,56.8,42.2,29.88,North,0,0.0,0.0,58,0.00,,SKC,0.00,VWS V13.00,2013-06-10 13:07:00,
2013-06-10 07:12:00,57.7,43.1,29.88,North,0,0.0,0.0,58,0.00,,SKC,0.00,VWS V13.00,2013-06-10 13:12:00,
2013-06-10 07:17:00,58.5,44.2,29.88,North,0,0.0,0.0,59,0.00,,SKC,0.00,VWS V13.00,2013-06-10 13:17:00,
2013-06-10 07:22:00,59.4,45.0,29.88,North,0,0.0,0.0,59,0.00,,SKC,0.00,VWS V13.00,2013-06-10 13:22:00,
2013-06-10 07:28:00,60.1,44.8,29.88,North,0,0.0,0.0,57,0.00,,SKC,0.00,VWS V13.00,2013-06-10 13:28:00,
2013-06-10 07:33:00,60.4,44.7,29.88,North,0,0.0,0.0,56,0.00,,SKC,0.00,VWS V13.00,2013-06-10 13:33:00,
2013-06-10 07:38:00,60.4,43.7,29.88,North,0,0.0,0.0,54,0.00,,SKC,0.00,VWS V13.00,2013-06-10 13:38:00,
2013-06-10 07:43:00,60.4,43.7,29.88,North,0,0.0,0.0,54,0.00,,SKC,0.00,VWS V13.00,2013-06-10 13:43:00,
2013-06-10 07:48:00,60.6,44.4,29.88,North,0,0.0,0.0,55,0.00,,SKC,0.00,VWS V13.00,2013-06-10 13:48:00,
2013-06-10 07:53:00,61.2,44.9,29.88,North,0,0.0,0.0,55,0.00,,SKC,0.00,VWS V13.00,2013-06-10 13:53:00,
2013-06-10 07:58:00,61.7,45.4,29.88,North,0,0.0,0.0,55,0.00,,SKC,0.00,VWS V13.00,2013-06-10 13:58:00,
2013-06-10 08:03:00,61.9,44.1,29.88,North,0,0.0,0.0,52,0.00,,SKC,0.00,VWS V13.00,2013-06-10 14:03:00,
2013-06-10 08:08:00,62.2,44.4,29.88,North,0,0.0,0.0,52,0.00,,SKC,0.00,VWS V13.00,2013-06-10 14:08:00,
2013-06-10 08:13:00,62.8,42.3,29.88,North,0,0.0,0.0,47,0.00,,SKC,0.00,VWS V13.00,2013-06-10 14:13:00,
2013-06-10 08:18:00,63.7,42.5,29.88,North,0,0.0,0.0,46,0.00,,SKC,0.00,VWS V13.00,2013-06-10 14:18:00,
2013-06-10 08:23:00,64.4,42.6,29.88,North,0,0.0,0.0,45,0.00,,SKC,0.00,VWS V13.00,2013-06-10 14:23:00,
2013-06-10 08:28:00,65.1,43.8,29.88,North,0,0.0,0.0,46,0.00,,SKC,0.00,VWS V13.00,2013-06-10 14:28:00,
2013-06-10 08:33:00,65.7,43.2,29.88,North,0,0.0,0.0,44,0.00,,SKC,0.00,VWS V13.00,2013-06-10 14:33:00,
2013-06-10 08:38:00,66.0,41.0,29.88,North,0,0.0,0.0,40,0.00,,SKC,0.00,VWS V13.00,2013-06-10 14:38:00,
2013-06-10 08:43:00,66.0,42.9,29.88,North,0,0.0,0.0,43,0.00,,SKC,0.00,VWS V13.00,2013-06-10 14:43:00,
2013-06-10 08:48:00,66.2,41.8,29.88,North,0,0.0,0.0,41,0.00,,SKC,0.00,VWS V13.00,2013-06-10 14:48:00,
2013-06-10 08:53:00,66.6,42.2,29.88,North,0,0.0,0.0,41,0.00,,SKC,0.00,VWS V13.00,2013-06-10 14:53:00,
2013-06-10 08:58:00,67.3,44.0,29.88,North,0,0.0,0.0,43,0.00,,SKC,0.00,VWS V13.00,2013-06-10 14:58:00,
2013-06-10 09:03:00,67.8,40.6,29.88,North,0,0.0,0.0,37,0.00,,SKC,0.00,VWS V13.00,2013-06-10 15:03:00,
2013-06-10 09:08:00,68.5,40.5,29.88,North,0,0.0,0.0,36,0.00,,SKC,0.00,VWS V13.00,2013-06-10 15:08:00,
2013-06-10 09:13:00,69.3,42.6,29.88,North,0,0.0,0.0,38,0.00,,SKC,0.00,VWS V13.00,2013-06-10 15:13:00,
2013-06-10 09:19:00,69.8,43.8,29.88,North,0,0.0,0.0,39,0.00,,SKC,0.00,VWS V13.00,2013-06-10 15:19:00,
2013-06-10 09:24:00,70.2,43.4,29.88,North,0,0.0,0.0,38,0.00,,SKC,0.00,VWS V13.00,2013-06-10 15:24:00,
2013-06-10 09:29:00,70.9,41.1,29.88,North,0,0.0,0.0,34,0.00,,SKC,0.00,VWS V13.00,2013-06-10 15:29:00,
2013-06-10 09:34:00,71.6,41.0,29.88,North,0,0.0,0.0,33,0.00,,SKC,0.00,VWS V13.00,2013-06-10 15:34:00,
2013-06-10 09:39:00,72.5,44.8,29.88,North,0,0.0,0.0,37,0.00,,SKC,0.00,VWS V13.00,2013-06-10 15:39:00,
2013-06-10 09:44:00,73.2,46.1,29.88,North,0,0.0,0.0,38,0.00,,SKC,0.00,VWS V13.00,2013-06-10 15:44:00,
2013-06-10 09:49:00,73.2,41.6,29.88,North,0,0.0,0.0,32,0.00,,SKC,0.00,VWS V13.00,2013-06-10 15:49:00,
2013-06-10 09:54:00,73.9,43.8,29.88,North,0,0.0,0.0,34,0.00,,SKC,0.00,VWS V13.00,2013-06-10 15:54:00,
2013-06-10 09:59:00,74.3,44.9,29.88,North,0,0.0,0.0,35,0.00,,SKC,0.00,VWS V13.00,2013-06-10 15:59:00,
2013-06-10 10:04:00,74.7,43.7,29.88,North,0,0.0,0.0,33,0.00,,SKC,0.00,VWS V13.00,2013-06-10 16:04:00,
2013-06-10 10:09:00,75.6,44.5,29.88,North,0,0.0,0.0,33,0.00,,SKC,0.00,VWS V13.00,2013-06-10 16:09:00,
2013-06-10 10:14:00,75.9,44.0,29.88,North,0,0.0,0.0,32,0.00,,SKC,0.00,VWS V13.00,2013-06-10 16:14:00,
2013-06-10 10:19:00,76.8,45.6,29.88,North,0,0.0,0.0,33,0.00,,SKC,0.00,VWS V13.00,2013-06-10 16:19:00,
2013-06-10 10:24:00,77.5,44.5,29.88,North,0,0.0,0.0,31,0.00,,SKC,0.00,VWS V13.00,2013-06-10 16:24:00,
2013-06-10 10:29:00,78.1,44.2,29.85,North,0,0.0,0.0,30,0.00,,SKC,0.00,VWS V13.00,2013-06-10 16:29:00,
2013-06-10 10:34:00,78.3,43.4,29.85,North,0,0.0,0.0,29,0.00,,SKC,0.00,VWS V13.00,2013-06-10 16:34:00,
2013-06-10 10:39:00,77.7,43.8,29.85,North,0,0.0,0.0,30,0.00,,SKC,0.00,VWS V13.00,2013-06-10 16:39:00,
2013-06-10 10:44:00,77.4,45.2,29.85,North,0,0.0,0.0,32,0.00,,SKC,0.00,VWS V13.00,2013-06-10 16:44:00,
2013-06-10 10:49:00,77.5,46.2,29.85,North,0,0.0,0.0,33,0.00,,SKC,0.00,VWS V13.00,2013-06-10 16:49:00,
2013-06-10 10:55:00,77.9,42.2,29.85,North,0,0.0,0.0,28,0.00,,SKC,0.00,VWS V13.00,2013-06-10 16:55:00,
2013-06-10 11:00:00,78.6,44.6,29.85,North,0,0.0,0.0,30,0.00,,SKC,0.00,VWS V13.00,2013-06-10 17:00:00,
2013-06-10 11:05:00,79.0,44.9,29.85,North,0,0.0,0.0,30,0.00,,SKC,0.00,VWS V13.00,2013-06-10 17:05:00,
2013-06-10 11:10:00,79.5,40.7,29.85,North,0,0.0,0.0,25,0.00,,SKC,0.00,VWS V13.00,2013-06-10 17:10:00,
2013-06-10 11:15:00,79.7,38.7,29.85,North,0,0.0,0.0,23,0.00,,SKC,0.00,VWS V13.00,2013-06-10 17:15:00,
2013-06-10 11:20:00,80.4,41.4,29.85,North,0,0.0,0.0,25,0.00,,SKC,0.00,VWS V13.00,2013-06-10 17:20:00,
2013-06-10 11:25:00,81.1,41.0,29.85,North,0,0.0,0.0,24,0.00,,SKC,0.00,VWS V13.00,2013-06-10 17:25:00,
2013-06-10 11:30:00,81.9,41.6,29.85,North,0,0.0,0.0,24,0.00,,SKC,0.00,VWS V13.00,2013-06-10 17:30:00,
2013-06-10 11:35:00,82.0,39.5,29.85,North,0,0.0,0.0,22,0.00,,SKC,0.00,VWS V13.00,2013-06-10 17:35:00,
2013-06-10 11:40:00,82.2,40.8,29.85,North,0,0.0,0.0,23,0.00,,SKC,0.00,VWS V13.00,2013-06-10 17:40:00,
2013-06-10 11:45:00,82.8,38.9,29.85,North,0,0.0,0.0,21,0.00,,SKC,0.00,VWS V13.00,2013-06-10 17:45:00,
2013-06-10 11:50:00,83.5,39.5,29.85,North,0,0.0,0.0,21,0.00,,SKC,0.00,VWS V13.00,2013-06-10 17:50:00,
2013-06-10 11:55:00,84.0,38.7,29.85,North,0,0.0,0.0,20,0.00,,SKC,0.00,VWS V13.00,2013-06-10 17:55:00,
2013-06-10 12:00:00,83.8,38.5,29.85,North,0,0.0,0.0,20,0.00,,SKC,0.00,VWS V13.00,2013-06-10 18:00:00,
2013-06-10 12:05:00,83.8,38.5,29.85,North,0,0.0,0.0,20,0.00,,SKC,0.00,VWS V13.00,2013-06-10 18:05:00,
2013-06-10 12:10:00,84.0,37.4,29.85,North,0,0.0,0.0,19,0.00,,SKC,0.00,VWS V13.00,2013-06-10 18:10:00,
2013-06-10 12:15:00,84.2,37.5,29.85,North,0,0.0,0.0,19,0.00,,SKC,0.00,VWS V13.00,2013-06-10 18:15:00,
2013-06-10 12:20:00,84.9,38.1,29.85,North,0,0.0,0.0,19,0.00,,SKC,0.00,VWS V13.00,2013-06-10 18:20:00,
2013-06-10 12:25:00,85.6,38.7,29.85,North,0,0.0,0.0,19,0.00,,SKC,0.00,VWS V13.00,2013-06-10 18:25:00,
2013-06-10 12:30:00,86.0,39.0,29.85,North,0,0.0,0.0,19,0.00,,SKC,0.00,VWS V13.00,2013-06-10 18:30:00,
2013-06-10 12:35:00,86.0,37.6,29.85,North,0,0.0,0.0,18,0.00,,SKC,0.00,VWS V13.00,2013-06-10 18:35:00,
2013-06-10 12:40:00,85.6,38.7,29.85,North,0,0.0,0.0,19,0.00,,SKC,0.00,VWS V13.00,2013-06-10 18:40:00,
2013-06-10 12:45:00,86.0,37.6,29.85,North,0,0.0,0.0,18,0.00,,SKC,0.00,VWS V13.00,2013-06-10 18:45:00,
2013-06-10 12:50:00,85.1,38.2,29.85,North,0,0.0,0.0,19,0.00,,SKC,0.00,VWS V13.00,2013-06-10 18:50:00,
2013-06-10 12:55:00,84.2,37.5,29.85,North,0,0.0,0.0,19,0.00,,SKC,0.00,VWS V13.00,2013-06-10 18:55:00,
2013-06-10 13:00:00,83.1,37.9,29.85,North,0,0.0,0.0,20,0.00,,SKC,0.00,VWS V13.00,2013-06-10 19:00:00,
2013-06-10 13:06:00,81.9,36.9,29.85,North,0,0.0,0.0,20,0.00,,SKC,0.00,VWS V13.00,2013-06-10 19:06:00,
2013-06-10 13:11:00,81.1,36.3,29.85,North,0,0.0,0.0,20,0.00,,SKC,0.00,VWS V13.00,2013-06-10 19:11:00,
2013-06-10 13:16:00,80.8,37.2,29.85,North,0,0.0,0.0,21,0.00,,SKC,0.00,VWS V13.00,2013-06-10 19:16:00,
2013-06-10 13:21:00,81.5,36.6,29.85,North,0,0.0,0.0,20,0.00,,SKC,0.00,VWS V13.00,2013-06-10 19:21:00,
2013-06-10 13:26:00,83.1,36.6,29.85,North,0,0.0,0.0,19,0.00,,SKC,0.00,VWS V13.00,2013-06-10 19:26:00,
2013-06-10 13:31:00,84.9,38.1,29.85,North,0,0.0,0.0,19,0.00,,SKC,0.00,VWS V13.00,2013-06-10 19:31:00,
2013-06-10 13:36:00,85.8,38.8,29.85,North,0,0.0,0.0,19,0.00,,SKC,0.00,VWS V13.00,2013-06-10 19:36:00,
2013-06-10 13:41:00,86.4,37.9,29.85,North,0,0.0,0.0,18,0.00,,SKC,0.00,VWS V13.00,2013-06-10 19:41:00,
2013-06-10 13:46:00,86.7,38.2,29.85,North,0,0.0,0.0,18,0.00,,SKC,0.00,VWS V13.00,2013-06-10 19:46:00,
2013-06-10 13:51:00,87.4,38.8,29.85,North,0,0.0,0.0,18,0.00,,SKC,0.00,VWS V13.00,2013-06-10 19:51:00,
2013-06-10 13:56:00,87.8,39.1,29.85,North,0,0.0,0.0,18,0.00,,SKC,0.00,VWS V13.00,2013-06-10 19:56:00,
2013-06-10 14:01:00,87.8,39.1,29.85,North,0,0.0,0.0,18,0.00,,SKC,0.00,VWS V13.00,2013-06-10 20:01:00,
2013-06-10 14:06:00,87.1,38.5,29.85,North,0,0.0,0.0,18,0.00,,SKC,0.00,VWS V13.00,2013-06-10 20:06:00,
2013-06-10 14:11:00,86.0,37.6,29.85,North,0,0.0,0.0,18,0.00,,SKC,0.00,VWS V13.00,2013-06-10 20:11:00,
2013-06-10 14:16:00,84.7,36.6,29.85,North,0,0.0,0.0,18,0.00,,SKC,0.00,VWS V13.00,2013-06-10 20:16:00,
2013-06-10 14:21:00,84.6,36.4,29.85,North,0,0.0,0.0,18,0.00,,SKC,0.00,VWS V13.00,2013-06-10 20:21:00,
2013-06-10 14:26:00,85.5,38.5,29.85,North,0,0.0,0.0,19,0.00,,SKC,0.00,VWS V13.00,2013-06-10 20:26:00,
2013-06-10 14:31:00,86.2,37.8,29.85,North,0,0.0,0.0,18,0.00,,SKC,0.00,VWS V13.00,2013-06-10 20:31:00,
2013-06-10 14:36:00,86.5,38.0,29.85,North,0,0.0,0.0,18,0.00,,SKC,0.00,VWS V13.00,2013-06-10 20:36:00,
2013-06-10 14:41:00,87.1,38.5,29.85,North,0,0.0,0.0,18,0.00,,SKC,0.00,VWS V13.00,2013-06-10 20:41:00,
2013-06-10 14:46:00,86.7,38.2,29.82,North,0,0.0,0.0,18,0.00,,SKC,0.00,VWS V13.00,2013-06-10 20:46:00,
2013-06-10 14:51:00,86.5,35.1,29.82,North,0,0.0,0.0,16,0.00,,SKC,0.00,VWS V13.00,2013-06-10 20:51:00,
2013-06-10 14:57:00,85.8,37.5,29.82,North,0,0.0,0.0,18,0.00,,SKC,0.00,VWS V13.00,2013-06-10 20:57:00,
2013-06-10 15:02:00,85.5,38.5,29.82,North,0,0.0,0.0,19,0.00,,SKC,0.00,VWS V13.00,2013-06-10 21:02:00,
2013-06-10 15:07:00,84.9,38.1,29.82,North,0,0.0,0.0,19,0.00,,SKC,0.00,VWS V13.00,2013-06-10 21:07:00,
2013-06-10 15:12:00,84.0,37.4,29.82,North,0,0.0,0.0,19,0.00,,SKC,0.00,VWS V13.00,2013-06-10 21:12:00,
2013-06-10 15:17:00,83.5,36.9,29.82,North,0,0.0,0.0,19,0.00,,SKC,0.00,VWS V13.00,2013-06-10 21:17:00,
2013-06-10 15:22:00,83.1,36.6,29.82,North,0,0.0,0.0,19,0.00,,SKC,0.00,VWS V13.00,2013-06-10 21:22:00,
2013-06-10 15:27:00,83.3,36.8,29.82,North,0,0.0,0.0,19,0.00,,SKC,0.00,VWS V13.00,2013-06-10 21:27:00,
2013-06-10 15:32:00,83.5,36.9,29.82,North,0,0.0,0.0,19,0.00,,SKC,0.00,VWS V13.00,2013-06-10 21:32:00,
2013-06-10 15:37:00,84.0,37.4,29.82,North,0,0.0,0.0,19,0.00,,SKC,0.00,VWS V13.00,2013-06-10 21:37:00,
2013-06-10 15:42:00,83.8,37.2,29.82,North,0,0.0,0.0,19,0.00,,SKC,0.00,VWS V13.00,2013-06-10 21:42:00,
2013-06-10 15:47:00,83.8,37.2,29.82,North,0,0.0,0.0,19,0.00,,SKC,0.00,VWS V13.00,2013-06-10 21:47:00,
2013-06-10 15:52:00,83.8,37.2,29.82,North,0,0.0,0.0,19,0.00,,SKC,0.00,VWS V13.00,2013-06-10 21:52:00,
2013-06-10 15:57:00,84.2,37.5,29.82,North,0,0.0,0.0,19,0.00,,SKC,0.00,VWS V13.00,2013-06-10 21:57:00,
2013-06-10 16:02:00,84.0,37.4,29.82,North,0,0.0,0.0,19,0.00,,SKC,0.00,VWS V13.00,2013-06-10 22:02:00,
2013-06-10 16:07:00,84.0,37.4,29.82,North,0,0.0,0.0,19,0.00,,SKC,0.00,VWS V13.00,2013-06-10 22:07:00,
2013-06-10 16:13:00,83.7,37.1,29.82,North,0,0.0,0.0,19,0.00,,SKC,0.00,VWS V13.00,2013-06-10 22:13:00,
2013-06-10 16:18:00,82.9,36.5,29.82,North,0,0.0,0.0,19,0.00,,SKC,0.00,VWS V13.00,2013-06-10 22:18:00,
2013-06-10 16:23:00,82.4,36.0,29.82,North,0,0.0,0.0,19,0.00,,SKC,0.00,VWS V13.00,2013-06-10 22:23:00,
2013-06-10 16:28:00,81.5,36.6,29.82,North,0,0.0,0.0,20,0.00,,SKC,0.00,VWS V13.00,2013-06-10 22:28:00,
2013-06-10 16:33:00,81.0,36.2,29.82,North,0,0.0,0.0,20,0.00,,SKC,0.00,VWS V13.00,2013-06-10 22:33:00,
2013-06-10 16:38:00,80.8,36.0,29.82,North,0,0.0,0.0,20,0.00,,SKC,0.00,VWS V13.00,2013-06-10 22:38:00,
2013-06-10 16:43:00,80.2,36.8,29.82,North,0,0.0,0.0,21,0.00,,SKC,0.00,VWS V13.00,2013-06-10 22:43:00,
2013-06-10 16:48:00,80.2,35.6,29.82,North,0,0.0,0.0,20,0.00,,SKC,0.00,VWS V13.00,2013-06-10 22:48:00,
2013-06-10 16:53:00,80.6,35.9,29.82,North,0,0.0,0.0,20,0.00,,SKC,0.00,VWS V13.00,2013-06-10 22:53:00,
2013-06-10 16:58:00,80.8,36.0,29.79,North,0,0.0,0.0,20,0.00,,SKC,0.00,VWS V13.00,2013-06-10 22:58:00,
2013-06-10 17:03:00,81.5,35.3,29.79,North,0,0.0,0.0,19,0.00,,SKC,0.00,VWS V13.00,2013-06-10 23:03:00,
2013-06-10 17:08:00,81.7,36.8,29.79,North,0,0.0,0.0,20,0.00,,SKC,0.00,VWS V13.00,2013-06-10 23:08:00,
2013-06-10 17:13:00,81.7,35.5,29.79,North,0,0.0,0.0,19,0.00,,SKC,0.00,VWS V13.00,2013-06-10 23:13:00,
2013-06-10 17:18:00,81.3,35.2,29.79,North,0,0.0,0.0,19,0.00,,SKC,0.00,VWS V13.00,2013-06-10 23:18:00,
2013-06-10 17:23:00,81.1,35.0,29.79,North,0,0.0,0.0,19,0.00,,SKC,0.00,VWS V13.00,2013-06-10 23:23:00,
2013-06-10 17:28:00,81.1,35.0,29.79,North,0,0.0,0.0,19,0.00,,SKC,0.00,VWS V13.00,2013-06-10 23:28:00,
2013-06-10 17:33:00,81.1,32.2,29.79,North,0,0.0,0.0,17,0.00,,SKC,0.00,VWS V13.00,2013-06-10 23:33:00,
2013-06-10 17:38:00,80.6,34.6,29.79,North,0,0.0,0.0,19,0.00,,SKC,0.00,VWS V13.00,2013-06-10 23:38:00,
2013-06-10 17:43:00,80.1,35.4,29.79,North,0,0.0,0.0,20,0.00,,SKC,0.00,VWS V13.00,2013-06-10 23:43:00,
2013-06-10 17:48:00,79.9,35.3,29.79,North,0,0.0,0.0,20,0.00,,SKC,0.00,VWS V13.00,2013-06-10 23:48:00,
2013-06-10 17:53:00,79.7,31.1,29.79,North,0,0.0,0.0,17,0.00,,SKC,0.00,VWS V13.00,2013-06-10 23:53:00,
2013-06-10 17:58:00,79.9,35.3,29.79,North,0,0.0,0.0,20,0.00,,SKC,0.00,VWS V13.00,2013-06-10 23:58:00,
2013-06-10 18:03:00,79.7,35.1,29.79,North,0,0.0,0.0,20,0.00,,SKC,0.00,VWS V13.00,2013-06-11 00:03:00,
2013-06-10 18:08:00,79.5,35.0,29.79,North,0,0.0,0.0,20,0.00,,SKC,0.00,VWS V13.00,2013-06-11 00:08:00,
2013-06-10 18:13:00,79.3,34.8,29.79,North,0,0.0,0.0,20,0.00,,SKC,0.00,VWS V13.00,2013-06-11 00:13:00,
2013-06-10 18:18:00,79.2,34.7,29.79,North,0,0.0,0.0,20,0.00,,SKC,0.00,VWS V13.00,2013-06-11 00:18:00,
2013-06-10 18:24:00,79.2,34.7,29.79,North,0,0.0,0.0,20,0.00,,SKC,0.00,VWS V13.00,2013-06-11 00:24:00,
2013-06-10 18:29:00,79.3,30.8,29.79,North,0,0.0,0.0,17,0.00,,SKC,0.00,VWS V13.00,2013-06-11 00:29:00,
2013-06-10 18:34:00,79.5,35.0,29.79,North,0,0.0,0.0,20,0.00,,SKC,0.00,VWS V13.00,2013-06-11 00:34:00,
2013-06-10 18:39:00,79.3,30.8,29.79,North,0,0.0,0.0,17,0.00,,SKC,0.00,VWS V13.00,2013-06-11 00:39:00,
2013-06-10 18:44:00,79.0,30.5,29.79,North,0,0.0,0.0,17,0.00,,SKC,0.00,VWS V13.00,2013-06-11 00:44:00,
2013-06-10 18:49:00,78.6,34.2,29.79,North,0,0.0,0.0,20,0.00,,SKC,0.00,VWS V13.00,2013-06-11 00:49:00,
2013-06-10 18:54:00,77.9,33.6,29.79,North,0,0.0,0.0,20,0.00,,SKC,0.00,VWS V13.00,2013-06-11 00:54:00,
2013-06-10 18:59:00,77.2,33.0,29.79,North,0,0.0,0.0,20,0.00,,SKC,0.00,VWS V13.00,2013-06-11 00:59:00,
2013-06-10 19:04:00,76.8,32.8,29.79,North,0,0.0,0.0,20,0.00,,SKC,0.00,VWS V13.00,2013-06-11 01:04:00,
2013-06-10 19:09:00,76.5,32.5,29.79,North,0,0.0,0.0,20,0.00,,SKC,0.00,VWS V13.00,2013-06-11 01:09:00,
2013-06-10 19:14:00,76.1,29.6,29.79,North,0,0.0,0.0,18,0.00,,SKC,0.00,VWS V13.00,2013-06-11 01:14:00,
2013-06-10 19:19:00,75.7,29.3,29.79,North,0,0.0,0.0,18,0.00,,SKC,0.00,VWS V13.00,2013-06-11 01:19:00,
2013-06-10 19:24:00,75.4,29.0,29.79,North,0,0.0,0.0,18,0.00,,SKC,0.00,VWS V13.00,2013-06-11 01:24:00,
2013-06-10 19:29:00,75.2,28.8,29.79,North,0,0.0,0.0,18,0.00,,SKC,0.00,VWS V13.00,2013-06-11 01:29:00,
2013-06-10 19:34:00,75.0,28.7,29.79,North,0,0.0,0.0,18,0.00,,SKC,0.00,VWS V13.00,2013-06-11 01:34:00,
2013-06-10 19:39:00,74.5,28.2,29.79,North,0,0.0,0.0,18,0.00,,SKC,0.00,VWS V13.00,2013-06-11 01:39:00,
2013-06-10 19:44:00,74.3,31.9,29.79,North,0,0.0,0.0,21,0.00,,SKC,0.00,VWS V13.00,2013-06-11 01:44:00,
2013-06-10 19:49:00,73.8,31.4,29.79,North,0,0.0,0.0,21,0.00,,SKC,0.00,VWS V13.00,2013-06-11 01:49:00,
2013-06-10 19:54:00,73.2,31.0,29.79,North,0,0.0,0.0,21,0.00,,SKC,0.00,VWS V13.00,2013-06-11 01:54:00,
2013-06-10 19:59:00,72.5,31.5,29.79,North,0,0.0,0.0,22,0.00,,SKC,0.00,VWS V13.00,2013-06-11 01:59:00,
2013-06-10 20:04:00,72.0,31.1,29.79,North,0,0.0,0.0,22,0.00,,SKC,0.00,VWS V13.00,2013-06-11 02:04:00,
2013-06-10 20:09:00,71.2,31.6,29.79,North,0,0.0,0.0,23,0.00,,SKC,0.00,VWS V13.00,2013-06-11 02:09:00,
2013-06-10 20:14:00,70.3,30.8,29.79,North,0,0.0,0.0,23,0.00,,SKC,0.00,VWS V13.00,2013-06-11 02:14:00,
2013-06-10 20:20:00,69.4,30.1,29.79,North,0,0.0,0.0,23,0.00,,SKC,0.00,VWS V13.00,2013-06-11 02:20:00,
2013-06-10 20:25:00,69.1,29.8,29.79,North,0,0.0,0.0,23,0.00,,SKC,0.00,VWS V13.00,2013-06-11 02:25:00,
2013-06-10 20:30:00,68.7,29.5,29.79,North,0,0.0,0.0,23,0.00,,SKC,0.00,VWS V13.00,2013-06-11 02:30:00,
2013-06-10 20:35:00,68.5,29.3,29.79,North,0,0.0,0.0,23,0.00,,SKC,0.00,VWS V13.00,2013-06-11 02:35:00,
2013-06-10 20:40:00,68.5,29.3,29.79,North,0,0.0,0.0,23,0.00,,SKC,0.00,VWS V13.00,2013-06-11 02:40:00,
2013-06-10 20:45:00,68.2,29.0,29.79,North,0,0.0,0.0,23,0.00,,SKC,0.00,VWS V13.00,2013-06-11 02:45:00,
2013-06-10 20:50:00,67.6,28.5,29.79,North,0,0.0,0.0,23,0.00,,SKC,0.00,VWS V13.00,2013-06-11 02:50:00,
2013-06-10 20:55:00,67.1,28.1,29.79,North,0,0.0,0.0,23,0.00,,SKC,0.00,VWS V13.00,2013-06-11 02:55:00,
2013-06-10 21:00:00,66.9,27.9,29.79,North,0,0.0,0.0,23,0.00,,SKC,0.00,VWS V13.00,2013-06-11 03:00:00,
2013-06-10 21:05:00,66.9,27.9,29.79,North,0,0.0,0.0,23,0.00,,SKC,0.00,VWS V13.00,2013-06-11 03:05:00,
2013-06-10 21:10:00,66.6,27.6,29.79,North,0,0.0,0.0,23,0.00,,SKC,0.00,VWS V13.00,2013-06-11 03:10:00,
2013-06-10 21:15:00,66.4,27.5,29.79,North,0,0.0,0.0,23,0.00,,SKC,0.00,VWS V13.00,2013-06-11 03:15:00,
2013-06-10 21:20:00,66.0,27.2,29.79,North,0,0.0,0.0,23,0.00,,SKC,0.00,VWS V13.00,2013-06-11 03:20:00,
2013-06-10 21:25:00,65.7,26.9,29.79,North,0,0.0,0.0,23,0.00,,SKC,0.00,VWS V13.00,2013-06-11 03:25:00,
2013-06-10 21:30:00,65.7,26.9,29.79,North,0,0.0,0.0,23,0.00,,SKC,0.00,VWS V13.00,2013-06-11 03:30:00,
2013-06-10 21:35:00,65.5,26.7,29.79,North,0,0.0,0.0,23,0.00,,SKC,0.00,VWS V13.00,2013-06-11 03:35:00,
2013-06-10 21:40:00,65.3,26.6,29.79,North,0,0.0,0.0,23,0.00,,SKC,0.00,VWS V13.00,2013-06-11 03:40:00,
2013-06-10 21:45:00,64.9,26.3,29.79,North,0,0.0,0.0,23,0.00,,SKC,0.00,VWS V13.00,2013-06-11 03:45:00,
2013-06-10 21:50:00,64.8,26.1,29.79,North,0,0.0,0.0,23,0.00,,SKC,0.00,VWS V13.00,2013-06-11 03:50:00,
2013-06-10 21:55:00,64.8,26.1,29.79,North,0,0.0,0.0,23,0.00,,SKC,0.00,VWS V13.00,2013-06-11 03:55:00,
2013-06-10 22:00:00,65.1,26.4,29.79,North,0,0.0,0.0,23,0.00,,SKC,0.00,VWS V13.00,2013-06-11 04:00:00,
2013-06-10 22:01:00,65.1,26.4,29.79,North,0,0.0,0.0,23,0.00,,SKC,0.00,VWS V13.00,2013-06-11 04:01:00,
2013-06-10 22:02:00,65.3,26.6,29.79,North,0,0.0,0.0,23,0.00,,SKC,0.00,VWS V13.00,2013-06-11 04:02:00,
2013-06-10 22:07:00,65.8,27.0,29.79,North,0,0.0,0.0,23,0.00,,SKC,0.00,VWS V13.00,2013-06-11 04:07:00,
2013-06-10 22:12:00,66.4,27.5,29.79,North,0,0.0,0.0,23,0.00,,SKC,0.00,VWS V13.00,2013-06-11 04:12:00,
2013-06-10 22:17:00,66.6,27.6,29.79,North,0,0.0,0.0,23,0.00,,SKC,0.00,VWS V13.00,2013-06-11 04:17:00,
2013-06-10 22:22:00,66.6,27.6,29.79,North,0,0.0,0.0,23,0.00,,SKC,0.00,VWS V13.00,2013-06-11 04:22:00,
2013-06-10 22:27:00,66.6,27.6,29.79,North,0,0.0,0.0,23,0.00,,SKC,0.00,VWS V13.00,2013-06-11 04:27:00,
2013-06-10 22:33:00,66.7,27.8,29.79,North,0,0.0,0.0,23,0.00,,SKC,0.00,VWS V13.00,2013-06-11 04:33:00,
2013-06-10 22:38:00,66.6,27.6,29.79,North,0,0.0,0.0,23,0.00,,SKC,0.00,VWS V13.00,2013-06-11 04:38:00,
2013-06-10 22:43:00,66.0,27.2,29.79,North,0,0.0,0.0,23,0.00,,SKC,0.00,VWS V13.00,2013-06-11 04:43:00,
2013-06-10 22:48:00,65.5,26.7,29.79,North,0,0.0,0.0,23,0.00,,SKC,0.00,VWS V13.00,2013-06-11 04:48:00,
2013-06-10 22:53:00,65.1,26.4,29.79,North,0,0.0,0.0,23,0.00,,SKC,0.00,VWS V13.00,2013-06-11 04:53:00,
2013-06-10 22:58:00,64.6,26.0,29.79,North,0,0.0,0.0,23,0.00,,SKC,0.00,VWS V13.00,2013-06-11 04:58:00,
2013-06-10 23:03:00,64.4,25.8,29.79,North,0,0.0,0.0,23,0.00,,SKC,0.00,VWS V13.00,2013-06-11 05:03:00,
2013-06-10 23:08:00,64.4,25.8,29.79,North,0,0.0,0.0,23,0.00,,SKC,0.00,VWS V13.00,2013-06-11 05:08:00,
2013-06-10 23:13:00,64.6,27.0,29.79,North,0,0.0,0.0,24,0.00,,SKC,0.00,VWS V13.00,2013-06-11 05:13:00,
2013-06-10 23:18:00,64.2,26.7,29.79,North,0,0.0,0.0,24,0.00,,SKC,0.00,VWS V13.00,2013-06-11 05:18:00,
2013-06-10 23:23:00,64.2,26.7,29.79,North,0,0.0,0.0,24,0.00,,SKC,0.00,VWS V13.00,2013-06-11 05:23:00,
2013-06-10 23:28:00,64.0,26.5,29.79,North,0,0.0,0.0,24,0.00,,SKC,0.00,VWS V13.00,2013-06-11 05:28:00,
2013-06-10 23:33:00,64.4,25.8,29.79,North,0,0.0,0.0,23,0.00,,SKC,0.00,VWS V13.00,2013-06-11 05:33:00,
2013-06-10 23:38:00,64.6,26.0,29.79,North,0,0.0,0.0,23,0.00,,SKC,0.00,VWS V13.00,2013-06-11 05:38:00,
2013-06-10 23:43:00,64.9,26.3,29.79,North,0,0.0,0.0,23,0.00,,SKC,0.00,VWS V13.00,2013-06-11 05:43:00,
2013-06-10 23:48:00,64.9,26.3,29.79,North,0,0.0,0.0,23,0.00,,SKC,0.00,VWS V13.00,2013-06-11 05:48:00,
2013-06-10 23:53:00,65.1,26.4,29.79,North,0,0.0,0.0,23,0.00,,SKC,0.00,VWS V13.00,2013-06-11 05:53:00,
2013-06-10 23:58:00,65.3,26.6,29.79,North,0,0.0,0.0,23,0.00,,SKC,0.00,VWS V13.00,2013-06-11 05:58:00,